Probability
19 29 46 43 20 3 0 0 0 0 0 0 0 0 0 0 0 0 0 0 0 0 0 0 0 0 0 0 0 0 0 0 0 0 0 0 0 0 0 0 0 0 0 0 0 0 0 0 0
18 29 40 33 13 2 0 0 0 0 0 0 0 0 0 0 0 0 0 0 0 0 0 0 0 0 0 0 0 0 0 0 0 0 0 0 0 0 0 0 0 0 0 0 0 0 0 0 0
16 23 26 16 5 0 0 0 0 0 0 0 0 0 0 0 0 0 0 0 0 0 0 0 0 0 0 0 0 0 0 0 0 0 0 0 0 0 0 0 0 0 0 0 0 0 0 0 0
10 13 10 4 0 0 0 0 0 0 0 0 0 0 0 0 0 0 0 0 0 0 1 0 0 0 0 0 0 0 0 0 0 0 0 0 0 0 0 0 0 0 0 0 0 0 0 0 0
4 4 3 0 0 0 0 0 0 0 0 0 0 0 0 0 0 0 0 0 0 1 3 3 2 1 0 0 0 0 0 0 0 0 0 0 0 0 0 0 0 0 0 0 0 0 0 0 0
1 0 0 0 0 0 0 0 0 0 0 0 0 0 0 0 0 0 1 1 2 3 5 6 4 2 1 0 0 0 0 0 0 0 0 0 0 0 0 0 0 0 0 0 0 0 0 0 0
0 0 0 0 0 0 0 0 1 2 1 0 1 1 1 0 0 0 1 2 3 4 4 5 5 3 2 2 1 1 1 1 1 0 0 0 0 0 0 0 0 0 0 0 0 0 0 0 0
0 0 0 0 0 0 0 1 2 3 3 3 4 4 2 1 1 2 2 2 2 3 2 3 4 4 4 5 5 6 6 4 3 1 1 1 0 0 0 0 0 0 0 0 0 0 0 0 0
0 0 0 0 1 2 1 1 3 4 4 5 7 7 6 5 5 4 3 1 2 2 1 1 3 4 6 7 11 13 12 9 6 4 3 4 2 1 0 0 0 0 0 0 0 0 0 0 0
0 0 0 1 2 3 3 2 3 4 3 4 6 7 7 6 6 5 4 3 2 1 0 0 1 3 5 9 15 19 19 16 11 6 6 7 6 3 1 1 2 1 0 0 0 0 0 0 0
0 0 0 1 1 2 3 2 3 4 2 1 3 4 5 4 4 4 4 4 4 2 1 1 1 2 3 8 17 24 27 25 17 10 9 11 10 7 3 2 3 2 0 0 0 0 0 0 0
0 0 0 1 1 2 3 2 2 2 1 1 2 3 3 2 2 2 3 4 4 3 3 3 3 2 1 6 16 25 27 25 21 16 15 14 14 11 6 4 4 3 0 0 0 0 0 0 0
0 0 0 1 2 3 4 2 0 0 0 0 1 2 2 2 2 2 2 2 2 3 3 3 3 2 1 4 12 17 20 22 23 25 22 19 18 15 10 7 6 3 1 0 0 0 0 0 0
1 1 1 1 2 3 2 1 0 0 0 0 1 2 2 2 2 3 3 2 2 2 3 2 2 2 2 3 5 9 14 20 26 30 28 23 22 21 17 12 8 4 2 0 0 0 0 0 0
1 1 2 2 1 1 1 0 0 0 0 0 1 1 2 2 2 2 3 2 2 2 2 1 1 2 3 2 2 3 9 18 27 32 29 25 25 26 25 20 14 9 5 2 1 0 0 0 0
1 1 2 1 0 0 0 0 0 0 0 1 2 2 2 2 2 3 3 3 2 1 1 1 0 1 2 2 2 2 5 13 24 31 30 26 26 30 32 29 22 15 10 7 4 1 0 0 0
0 1 1 1 0 0 0 0 0 0 1 2 3 3 3 3 3 3 3 2 1 1 0 0 0 1 1 1 2 4 6 12 21 27 27 26 29 33 36 34 27 20 17 14 9 5 2 2 1
0 0 0 0 0 0 0 0 0 0 1 2 2 2 2 3 3 3 2 1 1 0 0 0 1 1 1 1 3 6 8 12 17 20 22 25 29 33 35 36 30 24 23 22 18 12 7 4 4
0 0 0 0 0 0 0 0 0 1 2 1 1 1 1 2 2 3 2 1 0 0 0 0 1 2 2 3 4 6 9 11 12 14 18 22 26 29 32 35 32 27 27 27 24 19 13 8 5
0 0 0 0 0 0 0 0 1 2 2 1 0 1 2 1 1 2 1 1 1 0 0 0 0 1 1 2 3 4 7 9 10 11 13 18 23 26 27 29 30 30 29 26 23 21 17 12 7
0 0 0 0 0 0 0 0 1 1 1 0 0 1 1 1 0 0 0 0 0 0 0 0 0 0 0 0 1 2 4 6 8 9 10 14 18 22 24 25 28 31 31 27 23 22 19 14 10
0 0 0 0 0 0 0 0 0 0 0 0 0 0 0 0 0 0 0 0 0 0 0 0 0 0 0 0 0 1 1 2 4 5 6 8 11 16 20 21 24 28 30 28 26 23 19 14 9
0 0 0 0 0 0 0 0 0 0 0 0 0 0 0 0 0 0 0 0 0 0 0 0 0 0 0 0 0 0 0 0 1 3 3 4 7 10 13 15 20 25 27 27 26 25 20 13 8
0 0 0 0 0 0 0 0 0 0 0 0 0 0 0 0 0 0 0 0 0 0 0 0 0 0 0 0 0 0 0 0 1 2 3 4 7 9 10 11 14 20 22 23 25 24 19 13 9
0 0 0 0 0 0 0 0 0 0 0 0 0 0 0 0 0 0 0 0 0 0 0 0 0 0 0 0 0 0 0 0 0 1 2 4 7 9 8 7 9 13 17 19 22 22 18 14 11
0 0 0 0 0 0 0 0 0 0 0 0 0 0 0 0 0 0 0 0 0 0 0 0 0 0 0 0 0 0 0 0 0 0 1 4 6 6 5 4 5 8 12 15 18 20 17 13 10
0 0 0 0 0 0 0 0 0 0 0 0 0 0 0 0 0 0 0 0 0 0 0 0 0 0 0 0 0 0 0 0 0 0 1 3 4 4 3 2 3 6 10 13 16 17 16 12 8
0 0 0 0 0 0 0 0 0 0 0 0 0 0 0 0 0 0 0 0 0 0 0 0 0 0 0 0 0 0 0 0 0 0 1 2 3 2 1 1 3 5 10 13 14 14 13 9 6
0 0 0 0 0 0 0 0 0 0 0 0 0 0 0 0 0 0 0 0 0 0 0 0 0 0 0 0 0 0 0 0 0 0 0 1 1 1 0 0 1 4 8 10 10 10 9 7 5
0 0 0 0 0 0 0 0 0 0 0 0 0 0 0 0 0 0 0 0 0 0 0 0 0 0 0 0 0 0 0 0 0 0 0 0 0 0 0 0 1 2 6 8 8 8 7 6 5
Wind_Speed
7 8 6 3 3 2 11 10 10 9 9 10 11 11 16 15 10 8 3 8 15 15 13 10 10 9 8 8 7 6 6 6 6 5 5 4 4 4 4 3 3 3 4 4 4 4 4 4 4
8 6 4 3 1 7 10 9 10 10 9 8 12 15 17 15 13 9 4 8 14 15 12 11 11 9 8 7 6 6 5 5 5 5 4 4 3 3 3 2 2 2 3 3 4 3 4 4 4
10 6 4 2 6 8 10 8 9 11 10 10 12 15 12 10 11 8 7 8 12 12 12 13 11 8 7 6 5 5 5 4 4 4 4 3 3 3 2 2 2 2 2 3 3 3 3 3 3
6 3 3 1 11 10 9 9 10 11 12 13 12 12 12 12 9 8 7 9 11 11 13 12 10 8 7 6 5 4 5 4 4 4 4 3 3 2 2 1 1 1 2 2 2 2 2 2 2
4 1 2 5 11 11 10 11 12 12 13 14 15 14 12 12 11 8 6 8 9 10 12 12 11 9 7 6 5 5 5 5 5 4 4 4 3 3 3 2 2 1 1 1 2 1 1 1 1
2 1 2 5 11 10 11 12 13 14 14 13 13 13 10 9 8 6 6 6 7 8 10 11 11 10 9 7 7 6 6 6 6 6 6 5 5 4 4 4 3 2 2 1 1 0 0 0 1
3 1 2 5 7 9 11 13 14 14 15 14 10 11 9 9 6 5 6 6 7 6 6 8 9 9 9 9 9 8 8 8 8 7 7 7 7 7 6 6 5 4 3 2 2 2 2 2 2
3 2 3 4 6 8 11 14 14 15 13 13 13 10 6 5 4 6 6 6 7 6 4 3 4 5 7 8 11 11 10 10 9 9 9 9 9 9 9 9 8 7 6 5 4 4 4 4 4
3 2 2 2 5 7 9 11 12 14 14 15 15 12 9 8 9 8 7 7 6 6 4 3 2 0 2 5 8 10 11 11 10 9 11 9 6 8 9 11 11 10 8 7 6 6 6 6 7
0 3 3 6 9 10 12 12 7 11 13 12 12 12 11 10 9 9 8 7 7 6 5 3 2 2 2 2 3 5 6 6 7 7 7 6 7 6 7 10 13 12 10 9 9 9 8 7 5
3 4 5 7 9 10 10 12 14 9 9 9 9 9 8 9 8 8 7 6 5 5 6 6 5 4 3 2 1 2 2 3 6 7 7 6 5 4 3 4 7 8 9 7 8 8 6 6 6
6 8 7 8 8 8 9 9 11 13 7 6 6 7 8 8 7 6 6 6 5 5 4 4 5 4 4 3 2 2 2 3 3 5 6 6 4 4 3 4 6 6 5 6 6 6 8 8 8
8 8 10 11 13 14 14 12 10 9 6 5 5 7 8 8 8 7 7 8 7 7 7 6 6 6 5 4 2 3 2 3 4 4 4 5 5 5 5 4 4 5 4 5 5 6 6 6 5
8 9 9 9 10 9 11 9 7 6 3 4 6 8 8 8 9 9 10 9 9 9 9 8 8 7 7 5 4 3 3 3 4 3 5 6 5 5 4 4 3 3 3 3 4 6 4 3 3
9 9 9 7 8 8 7 9 7 4 3 5 6 7 7 8 8 9 10 10 10 9 9 9 8 8 8 7 6 4 4 4 3 4 5 6 5 6 5 4 4 4 4 4 3 4 4 3 3
9 9 6 4 3 5 3 5 6 3 4 5 5 5 4 6 9 10 10 10 10 9 9 9 9 9 8 8 7 5 5 5 4 3 4 6 6 6 5 5 5 5 4 3 3 2 2 2 2
8 6 4 5 2 2 2 6 5 3 4 4 4 4 5 7 9 9 10 10 10 9 9 9 9 9 8 8 6 6 6 5 4 3 4 5 6 5 4 4 5 5 4 4 4 3 2 2 2
5 6 2 5 4 3 5 6 5 3 4 6 6 7 8 9 9 10 9 9 9 9 10 9 9 9 8 6 6 5 6 5 5 4 4 5 4 5 4 4 6 5 4 4 4 4 3 2 2
9 8 3 7 5 1 2 5 5 4 4 6 7 9 9 10 9 9 9 9 9 9 10 9 9 8 6 5 5 6 6 5 5 4 5 5 5 4 5 4 4 4 4 5 5 4 4 3 2
8 8 3 7 3 3 2 4 6 4 3 4 6 8 9 9 10 9 8 9 9 9 9 9 8 8 7 5 5 5 6 5 5 4 5 5 5 5 6 5 4 4 4 5 5 4 3 3 3
7 5 7 3 2 4 5 5 8 7 4 4 5 6 7 8 9 9 8 8 8 8 8 9 8 8 8 8 5 6 5 5 4 5 4 4 5 5 6 6 5 6 5 6 7 6 6 4 3
6 6 5 5 5 5 7 2 8 7 4 4 5 5 6 7 8 7 8 8 9 9 8 8 9 9 8 8 7 8 6 6 6 5 5 5 5 4 5 6 6 6 5 6 7 7 5 6 4
4 4 6 7 7 9 6 3 7 5 4 5 6 6 7 7 8 8 8 8 9 9 8 8 8 9 9 9 8 7 6 5 5 6 6 5 4 3 4 5 5 5 5 7 8 7 7 6 6
4 7 9 8 7 6 0 1 6 4 6 6 7 7 7 7 7 8 8 7 7 7 6 7 7 8 8 9 9 8 9 8 7 7 6 5 3 3 3 4 4 4 4 6 6 7 8 7 6
5 7 4 5 6 2 4 2 7 7 6 5 6 6 7 6 6 6 7 7 7 7 7 7 7 8 8 9 9 8 8 8 7 6 5 5 4 3 3 3 3 3 4 4 5 6 6 7 7
5 5 5 6 5 1 4 4 7 7 4 3 3 4 5 5 5 5 6 6 6 7 7 7 7 8 8 8 8 8 8 5 5 6 5 5 4 4 4 3 2 3 3 4 4 4 6 6 7
6 4 4 5 9 6 4 8 8 5 3 2 4 5 5 6 5 5 6 6 6 6 6 6 7 7 8 8 7 7 8 7 7 7 6 5 4 4 4 3 2 2 2 3 3 3 5 5 6
3 6 5 5 5 5 1 5 5 4 4 5 5 6 6 6 6 5 5 6 5 5 5 6 6 7 7 8 8 7 7 7 7 6 7 6 6 5 5 4 3 2 1 1 2 2 4 5 5
2 2 2 4 2 3 4 4 5 4 4 4 5 5 5 5 6 5 5 5 5 6 6 6 6 7 7 8 7 7 7 7 7 7 7 7 6 6 6 5 4 3 2 1 0 1 2 4 4
3 5 5 4 4 2 2 4 5 4 3 3 3 4 4 4 5 5 5 5 5 6 6 6 7 7 6 7 7 7 7 7 7 7 8 7 7 6 6 6 5 4 4 3 2 1 1 2 3
Wind_Direction
214 220 223 250 256 61 56 52 52 43 46 49 46 67 68 55 51 81 146 125 117 117 124 134 130 127 125 123 122 119 119 120 118 116 111 107 104 99 93 84 73 64 61 60 60 58 52 51 53
241 213 227 248 337 64 59 55 58 48 53 62 57 59 64 62 69 90 101 102 118 123 135 133 134 132 131 132 133 130 128 128 128 126 123 118 113 109 105 97 82 72 70 66 64 61 58 53 52
251 230 247 245 56 60 64 57 63 57 50 62 72 59 47 50 70 90 107 122 118 121 122 123 138 138 140 143 146 148 146 143 145 144 141 136 130 120 109 103 90 74 75 75 68 66 64 59 57
242 231 261 69 73 63 63 65 61 63 54 52 68 71 59 47 66 88 117 121 111 117 119 129 140 144 151 157 163 169 169 169 167 164 164 166 164 162 158 145 119 79 71 74 73 76 69 69 66
231 280 349 81 77 68 63 62 64 61 57 61 75 85 73 59 70 85 94 103 111 119 125 138 146 152 160 169 175 185 190 190 188 188 190 190 192 191 187 190 192 179 126 95 80 77 74 76 68
263 39 25 83 83 68 61 61 61 61 52 49 79 91 81 66 62 71 75 81 98 111 127 138 156 165 174 183 189 197 204 207 206 204 207 207 209 210 208 206 202 198 188 173 146 106 205 229 243
282 207 130 87 85 70 62 57 55 57 45 30 49 88 82 58 51 61 71 75 81 84 107 145 161 176 186 193 197 203 209 214 216 216 216 216 218 219 217 214 208 207 206 204 202 214 228 232 242
300 325 47 79 90 72 67 67 62 59 52 37 38 63 62 39 53 60 64 62 65 65 64 81 147 174 188 195 205 208 210 215 220 223 222 221 222 223 222 218 210 209 208 210 211 215 223 229 237
284 23 35 50 89 73 65 79 82 75 67 59 56 57 52 39 44 44 42 42 40 34 26 30 42 202 192 197 201 203 212 217 220 225 226 224 223 218 215 220 204 201 206 210 211 216 223 229 230
324 62 42 47 77 83 60 45 48 76 55 47 47 46 42 40 38 36 33 27 22 10 360 360 356 340 316 264 191 198 204 204 213 221 211 211 225 225 213 200 196 198 204 210 214 219 226 231 225
52 85 84 62 82 99 86 58 34 76 53 37 33 34 39 37 37 32 27 21 12 359 358 353 348 342 323 283 236 215 210 202 215 225 210 207 222 225 193 177 183 197 204 211 209 215 224 221 218
80 50 66 70 62 74 81 80 61 57 58 42 39 34 36 33 29 23 17 9 360 356 353 340 338 330 317 311 277 243 220 218 224 228 221 203 208 221 215 198 184 189 198 203 194 207 216 219 213
105 95 84 85 84 83 84 81 78 63 58 53 42 41 35 30 19 16 16 8 357 356 352 348 339 335 329 320 298 278 250 234 230 224 233 212 200 210 216 219 197 196 196 195 201 206 221 214 212
115 120 120 114 106 102 98 90 77 61 37 48 44 45 30 25 17 17 16 2 360 358 351 350 345 341 331 322 315 305 290 262 247 229 232 229 207 209 213 215 205 203 203 206 206 207 220 212 195
138 148 147 144 138 141 125 85 72 63 41 40 33 48 29 24 17 21 13 0 359 353 347 350 339 342 337 335 332 322 302 290 263 248 244 243 224 209 209 215 208 206 207 216 225 230 211 199 181
197 194 164 138 163 166 227 87 73 31 37 41 25 41 35 32 21 24 13 0 355 351 348 346 343 345 344 342 331 318 307 295 280 264 252 255 242 221 209 210 214 209 197 201 206 234 223 199 176
226 247 157 153 177 150 93 94 91 46 15 25 27 25 33 29 25 28 13 1 352 353 351 351 350 345 347 336 323 319 309 302 293 275 258 252 254 242 224 210 220 213 194 190 202 201 207 200 189
305 294 235 145 100 86 102 114 111 70 28 11 16 19 28 18 21 26 12 3 356 359 356 354 349 346 344 335 328 322 313 308 303 297 284 268 253 248 239 225 216 215 195 190 189 188 198 194 179
309 307 309 106 108 84 132 134 121 83 49 18 17 18 18 9 11 24 10 7 1 0 357 352 349 343 342 338 329 322 316 311 302 294 291 284 266 252 242 238 226 214 202 194 191 187 191 194 176
291 298 326 109 107 300 206 171 131 113 78 45 20 19 16 6 1 15 10 6 1 360 356 349 349 342 343 334 323 308 306 299 296 292 284 276 267 253 243 227 224 223 200 190 196 190 189 196 175
306 343 348 353 157 242 250 210 153 145 117 74 42 31 17 5 1 5 5 3 359 358 356 349 344 343 344 338 328 321 312 306 308 306 295 282 267 255 244 230 220 220 206 196 195 191 188 195 198
332 31 334 298 269 241 210 237 147 149 126 74 45 36 23 10 2 9 7 4 359 358 355 347 349 347 346 339 333 326 321 316 309 305 296 290 267 258 244 233 224 219 209 203 199 191 187 181 192
349 327 286 270 264 272 235 255 131 140 75 52 41 29 23 11 6 8 7 4 359 357 353 348 353 349 345 341 335 328 325 312 307 309 307 303 292 274 260 241 227 215 213 211 202 191 190 188 185
281 263 248 240 251 258 98 345 103 67 42 27 23 22 20 6 7 4 1 1 355 352 352 348 352 347 344 343 341 341 335 326 321 322 321 318 310 294 278 257 231 220 217 215 206 196 195 191 183
263 293 276 231 210 127 81 85 89 78 54 28 13 18 12 4 9 359 357 356 354 351 353 348 354 347 346 346 343 342 339 334 331 329 324 328 323 314 297 276 245 225 218 217 206 198 199 195 190
320 310 325 324 335 68 151 89 101 94 86 40 24 35 11 9 8 1 355 354 351 353 350 349 352 347 347 345 341 343 345 341 337 337 334 332 323 309 308 296 263 233 223 217 207 201 199 196 195
316 332 353 301 288 288 124 115 127 125 105 47 21 27 23 10 1 2 357 359 357 353 349 351 351 347 347 344 342 351 354 353 349 346 343 337 336 333 330 329 321 268 229 208 202 198 198 193 193
311 328 306 293 334 326 66 103 102 90 43 23 20 28 25 8 359 6 4 4 357 352 343 351 352 353 349 353 358 1 357 353 349 349 350 349 350 353 351 349 342 333 304 219 199 196 196 193 190
291 264 308 294 279 320 338 74 74 71 57 26 22 31 24 5 359 5 9 6 359 357 353 356 359 1 357 358 359 1 358 358 358 360 3 2 1 7 7 3 2 10 17 9 190 192 187 190 191
329 336 332 322 344 325 296 98 96 95 84 60 34 30 18 6 3 11 13 10 2 356 356 2 2 1 1 1 3 3 3 6 6 5 6 8 10 12 15 11 13 19 25 24 41 59 138 181 186